Weather History for Grand Marais, MN

Change the Weather History Date:

Monday, February 10, 2014

  Actual Average (KCKC) Record (KCKC)
Temperature  
Mean Temperature 0 °F -  
Max Temperature 8 °F 20 °F 37 °F (2009)
Min Temperature -8 °F 4 °F -23 °F (2008)
Degree Days  
Heating Degree Days 65    
Moisture  
Dew Point -13 °F    
Average Humidity 58    
Maximum Humidity 72    
Minimum Humidity 41    
Precipitation  
Precipitation 0.00 in - - ()
Sea Level Pressure  
Sea Level Pressure 30.44 in    
Wind  
Wind Speed 4 mph (NW)    
Max Wind Speed 10 mph    
Max Gust Speed 18 mph    
Averages and records for this station are not official NWS values.
T = Trace of Precipitation, MM = Missing Value Source: NWS Daily Summary

Daily Weather History Graph

Daily Weather History Graph

Search for Another Location

Airport:

Trip Planner

Search our weather history database for the weather conditions in past years. The results will help you decide how hot, cold, wet, or windy it might be!

Date:

Astronomy

Feb. 10, 2014 Rise Set
Actual Time 7:15 AM CST 5:16 PM CST
Civil Twilight 6:43 AM CST 5:48 PM CST
Nautical Twilight 6:06 AM CST 6:25 PM CST
Astronomical Twilight 5:30 AM CST 7:01 PM CST
Moon 1:38 PM CST (2/10) 4:16 AM CST (2/10)
Length of Visible Light 11h 05m
Length of Day
10h 01m
Waxing Gibbous, 85% of the Moon is Illuminated
Feb 10
Waxing Gibbous
Feb 14
Full
Feb 22
Last Quarter
Mar 1
New
Mar 8
First Quarter

Hourly Weather History & Observations

Time (CST) Temp. Windchill Dew Point Humidity Pressure Visibility Wind Dir Wind Speed Gust Speed Precip Events Conditions
12:56 AM -2.9 °F - -14.1 °F 59% 30.38 in - Calm Calm - N/A   Unknown
1:56 AM -5.1 °F -17.6 °F -14.1 °F 65% 30.38 in - West 5.8 mph - N/A   Unknown
2:56 AM -5.1 °F -19.1 °F -15.0 °F 62% 30.38 in - NNW 6.9 mph 18.4 mph N/A   Unknown
3:56 AM -6.0 °F -23.6 °F -16.1 °F 62% 30.39 in - NW 10.4 mph - N/A   Unknown
4:56 AM -8.0 °F -16.9 °F -17.0 °F 65% 30.42 in - West 3.5 mph - N/A   Unknown
5:56 AM -8.0 °F -16.9 °F -16.1 °F 68% 30.42 in - West 3.5 mph - N/A   Unknown
6:56 AM -8.0 °F -19.2 °F -16.1 °F 68% 30.44 in - NW 4.6 mph - N/A   Unknown
7:56 AM -7.1 °F - -16.1 °F 65% 30.45 in - Calm Calm - N/A   Unknown
8:56 AM -4.0 °F - -15.0 °F 59% 30.45 in - Calm Calm - N/A   Unknown
9:56 AM -0.9 °F - -13.0 °F 57% 30.46 in - Calm Calm - N/A   Unknown
10:56 AM 1.9 °F -5.6 °F -9.9 °F 58% 30.45 in - Variable 3.5 mph - N/A   Unknown
11:56 AM 5.0 °F -4.1 °F -14.1 °F 41% 30.43 in - NNW 4.6 mph - N/A   Unknown
12:56 PM 7.0 °F -4.5 °F -11.9 °F 42% 30.42 in - Variable 6.9 mph - N/A   Unknown
1:56 PM 8.1 °F -2.0 °F -9.9 °F 44% 30.40 in - North 5.8 mph - N/A   Unknown
2:56 PM 8.1 °F 1.4 °F -9.0 °F 46% 30.41 in - Variable 3.5 mph - N/A   Unknown
3:56 PM 8.1 °F -2.0 °F -8.0 °F 48% 30.43 in - North 5.8 mph - N/A   Unknown
4:56 PM 6.1 °F -0.9 °F -9.0 °F 50% 30.45 in - NW 3.5 mph - N/A   Unknown
5:56 PM -0.0 °F - -9.9 °F 63% 30.47 in - Calm Calm - N/A   Unknown
6:56 PM -4.0 °F - -13.0 °F 65% 30.48 in - Calm Calm - N/A   Unknown
7:56 PM -6.0 °F -14.7 °F -14.1 °F 68% 30.49 in - West 3.5 mph - N/A   Unknown
8:56 PM -7.1 °F -15.9 °F -14.1 °F 72% 30.50 in - Variable 3.5 mph - N/A   Unknown
9:56 PM 1.0 °F -14.9 °F -11.0 °F 57% 30.47 in - NNW 10.4 mph 16.1 mph N/A   Unknown
10:56 PM 1.0 °F -11.7 °F -9.9 °F 60% 30.47 in - NW 6.9 mph 17.3 mph N/A   Unknown
11:56 PM 1.0 °F -12.9 °F -9.9 °F 60% 30.46 in - NNW 8.1 mph 17.3 mph N/A   Unknown